GFSCGP_925_temp_138.txt.gz
Temp
14 14 14 16 16 17 17 18 19 20 19 19 20 20 20 22 22 22 23 23 23 23 24 23 20 19 18 17 17 17 17 16 15 15 15 15 15 14 14 14 14 14 14 14
13 14 17 17 15 15 15 16 17 19 18 18 20 19 21 21 21 22 22 23 23 23 23 22 20 19 18 18 17 17 17 17 16 15 15 15 15 15 15 15 14 14 14 14
14 17 17 17 16 14 15 16 15 18 18 18 18 19 21 22 22 22 22 23 24 24 23 23 22 19 18 18 18 17 17 17 16 16 16 15 16 15 15 15 14 14 14 14
15 17 17 14 14 15 15 16 16 16 16 16 18 19 22 23 22 21 21 22 22 24 24 24 23 21 19 19 18 18 17 17 17 16 16 15 15 15 15 16 15 14 14 14
15 16 14 15 15 15 14 16 16 17 17 16 16 15 20 22 21 22 23 23 23 23 23 24 23 22 21 19 18 17 18 17 17 16 16 15 16 16 17 17 16 14 14 15
16 16 16 16 14 14 15 14 14 14 14 15 17 17 20 22 23 23 23 24 23 23 22 23 23 22 21 19 18 17 17 17 16 15 15 16 16 17 17 17 16 15 15 15
15 15 16 16 15 14 14 15 14 14 14 16 20 18 19 23 23 23 23 24 23 24 23 22 21 21 21 19 18 17 17 17 16 16 15 16 16 16 17 16 15 16 15 15
13 13 15 16 16 16 15 17 16 16 17 19 16 18 21 22 23 23 22 22 22 21 21 20 20 20 20 19 18 17 17 17 16 16 15 15 16 16 16 16 16 16 16 15
13 14 15 16 16 17 17 14 18 17 10 16 20 20 20 20 20 20 21 22 21 21 21 20 20 19 19 19 18 17 17 17 17 16 16 16 16 16 16 16 16 16 15 16
15 14 16 15 15 15 16 16 13 13 15 15 19 20 22 20 21 21 22 23 23 21 21 20 20 19 18 18 18 17 17 17 17 16 16 16 16 16 16 16 16 16 16 15
14 14 14 15 15 15 13 13 13 14 13 17 19 21 24 24 23 22 21 21 22 21 20 20 20 19 17 16 17 17 17 17 16 16 16 16 16 16 15 16 16 16 15 15
14 12 12 14 13 15 16 15 15 14 13 14 18 19 20 21 21 23 21 19 19 19 19 19 19 18 16 14 15 16 16 16 16 16 15 15 16 15 15 15 15 15 15 14
13 12 11 12 12 12 13 16 16 13 13 16 16 19 22 23 20 19 19 20 19 17 18 18 16 16 16 14 14 14 15 15 15 15 15 15 15 15 14 14 14 14 14 13
13 13 13 13 15 12 12 13 15 15 13 14 16 19 21 22 20 22 21 19 18 17 17 18 17 16 15 14 14 14 14 14 14 14 14 14 14 14 14 14 13 13 13 13
10 10 11 13 13 13 12 12 11 13 15 14 17 18 20 21 22 22 22 21 18 18 18 18 17 16 15 14 13 13 13 13 12 12 13 13 13 13 13 13 13 13 13 13
12 11 12 10 12 13 12 13 13 14 11 13 17 17 20 21 22 21 21 21 21 21 21 18 17 15 14 14 14 13 12 12 11 11 11 12 12 12 12 13 13 13 13 12
11 10 10 11 12 12 11 12 13 14 15 13 12 15 18 19 19 20 20 20 20 21 21 20 20 17 15 14 14 12 13 12 12 11 10 11 11 11 12 12 12 12 12 12
8 8 9 10 10 10 14 16 16 15 15 16 17 17 17 18 19 19 20 20 20 20 19 18 19 20 16 15 14 15 13 12 11 10 10 11 11 11 11 11 11 10 10 10
10 9 9 9 10 12 12 14 14 15 16 17 16 17 17 18 18 18 19 20 20 20 20 20 20 20 16 16 14 13 11 11 11 10 11 11 11 10 9 9 9 8 7 6
9 9 9 10 9 10 15 17 17 17 14 18 18 17 17 17 16 18 20 20 19 19 18 19 17 16 14 15 13 11 9 8 8 9 11 10 10 10 9 8 8 7 6 5
7 8 8 9 8 10 13 14 15 13 15 18 19 18 18 17 18 19 20 20 20 20 19 18 16 15 15 14 13 9 8 8 10 11 10 10 10 10 10 9 8 6 5 4
9 9 9 9 9 9 13 13 13 7 5 7 6 11 10 14 17 18 19 19 18 19 18 16 15 13 15 13 11 9 8 12 11 11 10 9 8 8 7 7 5 4 4 3
9 11 11 11 12 14 7 4 0 -0 0 1 1 3 3 6 10 12 16 18 18 18 16 12 12 13 12 10 10 9 10 10 9 9 8 6 5 5 5 4 2 2 2 1
9 3 8 10 11 10 3 2 -0 -2 -2 -2 -1 -1 0 2 4 5 7 8 8 8 7 8 7 5 5 8 9 9 10 9 8 4 2 2 2 1 2 2 2 1 1 1
1 -0 0 3 6 -0 3 -1 -4 -4 -4 -3 -3 -3 -2 -0 0 2 2 3 3 3 3 3 4 4 5 6 5 6 7 6 3 1 0 0 0 0 0 1 1 1 1 1
-7 -7 -1 4 -6 -7 -5 -5 -6 -6 -6 -5 -5 -5 -3 -3 -2 -2 -1 0 -1 -1 -1 -0 -0 1 -1 -0 -0 1 3 3 1 0 -0 -0 -0 -0 -0 -0 -0 1 1 1

GFSCGP_925_temp_141.txt.gz
Temp
14 14 15 16 16 18 19 18 20 22 22 18 20 21 23 24 24 24 24 25 26 26 27 26 26 23 22 21 20 20 19 18 17 17 17 17 17 16 16 16 16 16 15 15
14 14 17 18 17 15 17 17 16 19 21 18 20 21 23 24 24 24 25 25 25 26 26 26 25 24 22 21 20 20 19 18 17 17 17 17 17 17 16 16 16 16 15 15
15 17 19 18 17 16 17 15 15 17 20 20 20 20 21 23 23 24 25 25 26 26 26 27 26 25 22 21 20 20 19 19 18 17 17 17 17 17 17 16 16 15 15 15
15 17 16 17 17 18 16 18 16 15 16 17 21 18 23 25 26 26 25 24 25 25 26 26 27 25 23 21 20 20 20 19 19 18 17 17 17 17 17 17 16 16 15 15
16 17 17 15 17 17 17 18 16 15 15 15 17 16 20 23 24 25 26 24 25 25 25 26 26 26 25 22 20 20 20 20 19 19 17 17 17 17 17 17 17 16 15 14
16 18 18 19 19 18 17 14 14 14 14 14 16 18 21 22 24 25 26 26 26 26 25 25 26 26 25 24 21 20 20 20 19 19 18 17 17 17 17 18 17 17 15 15
16 16 17 17 16 14 14 14 14 14 14 15 20 18 20 23 25 25 26 26 26 26 26 25 25 25 25 24 22 20 20 20 19 19 18 17 18 17 18 18 18 17 16 15
14 14 16 17 16 17 13 13 15 16 16 19 19 18 21 24 24 25 24 25 24 25 25 24 23 23 23 23 22 20 19 19 19 19 18 18 17 17 17 18 18 18 16 16
15 15 18 18 18 17 16 12 15 14 15 14 17 20 23 24 23 22 23 23 24 24 24 23 23 22 22 21 21 21 20 19 19 19 18 18 17 17 17 17 18 18 17 17
16 15 17 18 18 18 17 18 14 13 15 15 18 21 22 24 24 24 23 23 23 24 24 23 22 22 22 22 21 20 20 19 19 19 18 18 18 17 17 17 17 18 17 17
15 15 15 17 15 15 16 16 17 16 16 16 18 20 24 24 26 26 25 24 24 23 23 23 23 22 21 21 20 20 19 19 19 18 18 18 18 18 17 17 17 17 17 17
15 14 13 14 16 18 17 16 16 14 14 15 17 19 24 24 23 23 23 22 22 21 21 22 21 20 19 19 18 18 19 18 18 18 18 18 17 17 17 17 17 17 17 16
15 12 11 13 15 16 12 16 16 15 15 14 14 17 22 24 24 24 22 22 21 20 20 21 21 19 18 18 17 16 16 17 17 17 17 17 17 17 17 17 17 16 16 16
15 14 13 13 15 16 13 14 15 16 13 13 15 17 20 22 23 24 24 23 21 20 19 20 20 20 18 17 17 16 16 16 16 16 17 16 16 17 17 17 16 16 16 16
13 10 13 15 15 16 16 14 11 11 14 14 17 18 19 20 21 23 24 24 23 22 21 21 21 21 21 18 16 15 16 15 15 15 16 16 16 16 16 16 16 15 15 15
11 10 9 9 12 13 13 14 15 15 14 12 12 12 15 17 18 19 21 22 21 21 21 21 21 20 19 18 18 17 15 15 14 14 14 14 15 15 15 15 14 14 14 13
13 11 10 11 13 12 11 13 14 15 16 16 15 17 18 18 19 19 20 20 21 21 21 21 20 21 20 18 17 17 17 15 14 13 13 13 13 13 13 13 13 12 12 12
9 8 9 10 10 10 14 17 17 16 16 17 17 17 18 18 19 19 19 19 20 20 20 20 20 21 20 20 18 17 17 15 13 12 12 10 10 11 11 11 11 11 11 11
12 10 10 9 10 12 13 14 15 15 15 17 17 18 18 19 19 19 20 20 20 20 20 20 21 21 20 20 18 16 15 14 12 11 10 10 9 8 9 9 10 10 10 10
10 11 10 10 9 9 14 17 18 18 14 15 16 17 14 16 17 19 11 14 18 20 20 20 20 20 19 19 18 15 14 11 10 10 11 10 10 8 9 9 10 10 9 10
7 8 7 8 8 11 13 14 16 13 12 6 6 7 6 8 10 8 9 10 11 12 15 19 19 19 19 18 17 12 11 10 13 13 12 11 10 10 8 8 8 8 7 8
9 8 8 8 8 9 10 14 13 6 3 3 2 3 2 3 4 5 6 6 7 8 8 9 13 17 18 17 14 11 10 13 13 12 11 10 9 8 7 6 5 4 4 4
10 12 11 11 12 9 5 5 1 -0 -1 -0 -1 -0 -0 0 2 2 2 3 3 3 4 4 5 7 11 14 13 10 11 12 12 10 9 8 7 6 6 4 2 2 2 2
11 6 9 10 11 4 4 1 -1 -3 -3 -2 -2 -2 -2 -1 -1 -1 -1 -0 -0 1 1 0 1 2 4 7 9 10 9 11 10 7 5 4 2 1 2 2 2 2 2 2
3 2 3 5 7 0 3 -1 -4 -5 -4 -4 -5 -5 -4 -4 -3 -2 -2 -3 -2 -2 -2 -3 -2 -1 0 1 2 4 5 8 6 4 2 1 1 1 1 1 2 2 2 2
-4 -3 2 6 -4 -6 -4 -4 -6 -6 -7 -7 -7 -7 -6 -6 -5 -5 -5 -5 -4 -4 -5 -5 -4 -4 -3 -2 -1 -1 -0 2 3 1 1 1 1 1 1 1 1 2 2 2

GFSCGP_925_temp_144.txt.gz
Temp
14 14 15 15 16 17 15 16 17 19 20 20 19 19 20 21 21 22 22 22 22 23 25 27 24 24 23 21 19 19 19 18 17 17 17 17 16 16 16 16 16 16 15 15
13 13 16 17 16 16 15 15 16 18 18 18 18 19 20 20 21 22 22 22 23 23 24 25 26 23 23 22 20 20 20 18 17 17 17 16 16 16 16 16 16 16 16 15
14 16 17 16 16 16 15 15 15 16 17 18 18 18 18 20 21 22 23 23 23 23 23 24 25 25 23 22 21 20 20 19 18 17 17 16 16 16 16 16 16 16 16 15
14 16 16 16 16 16 15 17 17 17 15 15 18 16 17 20 21 21 22 22 23 23 23 24 24 25 24 22 21 20 20 20 18 17 17 17 17 17 17 16 16 16 16 16
14 15 15 15 16 17 16 17 17 17 16 14 16 15 18 21 20 21 22 21 23 23 23 23 24 25 25 23 21 20 20 19 19 18 17 17 17 17 17 17 16 16 15 16
14 16 17 16 16 16 17 15 15 14 14 14 15 15 17 18 19 21 22 23 22 22 22 23 24 25 24 25 22 20 20 19 19 19 17 17 17 17 17 17 16 16 15 15
14 15 16 17 15 16 16 15 13 13 13 14 17 16 16 19 20 21 21 21 21 22 22 21 21 22 23 24 22 20 20 19 19 19 18 17 17 17 17 17 17 16 15 15
12 12 15 16 15 15 14 14 14 13 15 14 15 15 17 19 21 21 22 21 20 20 20 20 20 21 23 24 24 21 20 19 19 19 19 18 17 17 17 17 17 16 16 15
13 13 17 16 16 16 15 13 15 14 13 13 15 16 18 19 20 20 20 20 20 20 20 20 20 21 22 22 23 22 20 19 19 19 19 18 18 17 17 17 17 17 17 16
15 14 16 16 16 15 15 14 13 12 13 13 14 14 17 19 20 21 20 19 19 19 20 20 19 19 21 21 22 22 21 20 19 19 19 19 18 17 17 17 17 17 17 17
14 14 15 15 15 15 14 14 14 14 11 13 13 15 19 20 21 20 19 19 19 20 20 19 18 20 20 20 21 21 20 20 19 19 19 19 18 18 17 17 17 17 17 17
14 13 11 13 15 16 16 15 15 13 13 13 14 14 19 20 21 20 20 21 21 20 18 18 17 18 18 18 19 19 19 19 19 19 18 18 18 18 17 17 17 17 17 17
13 11 10 11 13 14 12 14 14 14 14 13 13 15 18 18 18 19 19 20 19 19 18 17 17 16 17 18 18 18 18 18 18 18 18 18 18 17 17 17 17 16 17 17
14 13 11 11 13 14 13 13 13 13 12 13 13 14 16 17 17 19 18 18 18 17 17 16 16 16 17 18 19 18 18 17 17 17 17 17 17 17 17 17 17 16 16 16
12 8 12 13 13 14 14 13 11 12 13 12 14 14 16 16 14 14 15 17 18 18 18 17 17 16 16 18 18 19 19 18 17 16 16 16 17 17 16 16 16 16 16 16
11 8 10 7 11 11 12 12 13 13 12 10 11 12 14 15 15 15 16 17 18 18 19 19 19 18 16 17 18 19 19 19 17 16 15 15 15 16 16 16 16 16 16 16
10 8 8 8 10 11 9 11 12 13 13 14 13 14 16 16 15 16 16 17 17 17 18 18 18 18 18 18 19 18 19 19 17 16 15 15 15 15 15 15 16 16 15 15
9 8 8 7 7 6 11 14 13 13 14 14 15 15 15 15 16 16 8 8 9 10 10 11 13 15 17 18 18 19 19 18 17 16 14 14 14 14 14 14 14 14 14 14
10 8 5 5 4 8 10 12 13 12 13 12 12 7 7 7 10 13 7 6 7 7 7 8 8 8 9 14 17 18 18 17 16 14 14 14 13 12 12 12 12 12 12 13
9 10 5 2 2 3 11 12 13 13 11 6 5 5 4 5 8 8 4 5 5 5 5 5 5 5 6 7 7 13 15 14 12 13 16 15 13 11 10 10 10 10 10 10
2 3 4 3 2 4 11 10 12 7 8 2 2 2 1 1 3 2 3 3 3 3 3 3 3 3 3 3 4 6 9 10 14 15 14 14 12 11 10 8 8 8 9 9
5 4 1 2 2 4 5 9 10 0 -1 -1 -2 -1 -2 -2 -1 -0 0 0 0 0 -0 -0 0 0 -0 0 1 3 5 8 10 12 12 12 12 9 8 6 6 7 7 6
6 8 5 6 5 3 1 -1 -3 -4 -4 -3 -4 -4 -4 -4 -4 -3 -3 -3 -2 -2 -3 -3 -2 -3 -2 -2 -2 -1 0 1 3 6 10 11 9 7 7 5 5 5 5 4
8 4 6 7 4 -0 -0 -3 -4 -5 -5 -5 -6 -6 -6 -6 -6 -6 -5 -5 -5 -5 -4 -4 -4 -4 -4 -4 -3 -3 -2 -2 -0 2 5 6 4 2 2 3 4 4 3 3
0 2 0 2 1 1 -2 -4 -6 -6 -7 -7 -7 -8 -8 -8 -7 -7 -7 -7 -7 -7 -6 -7 -6 -6 -5 -5 -5 -4 -4 -3 -2 -1 1 1 1 1 1 2 2 3 3 4
-6 -3 1 1 -6 -6 -5 -6 -7 -9 -9 -9 -9 -9 -9 -9 -8 -9 -9 -9 -9 -8 -9 -10 -10 -10 -8 -8 -8 -7 -6 -5 -2 -1 -0 0 0 0 1 1 1 1 2 2

GFSCGP_925_temp_147.txt.gz
Temp
13 13 14 14 16 16 16 16 16 17 17 18 17 18 18 18 17 17 18 18 20 18 21 24 25 24 22 21 20 19 19 19 18 17 17 17 17 17 17 17 17 16 16 16
13 14 15 16 15 14 15 15 15 16 16 16 16 16 17 18 18 19 19 19 19 20 20 22 24 23 21 20 20 19 19 19 18 17 17 16 16 16 16 17 16 16 16 16
14 15 15 15 14 14 14 15 15 15 15 16 15 14 16 18 18 20 20 20 21 20 21 20 22 23 22 20 19 19 19 19 18 18 17 16 16 16 15 15 16 16 16 16
12 14 14 14 14 15 14 14 15 14 14 14 15 14 16 17 17 19 19 19 20 21 21 20 21 22 22 21 20 20 19 19 18 17 16 16 16 16 15 15 15 15 16 16
13 12 13 13 14 14 14 15 15 14 15 14 14 14 15 16 16 18 17 17 18 20 21 21 21 22 24 23 21 20 19 19 18 17 17 16 16 16 16 15 15 15 15 16
13 14 13 14 15 14 14 15 14 14 13 14 14 13 16 17 17 18 18 19 20 19 18 20 22 23 23 24 23 21 20 19 19 18 16 16 16 16 16 16 15 15 15 15
12 12 14 15 13 13 12 13 13 13 13 14 14 13 16 17 18 17 18 18 19 17 17 18 19 18 21 23 23 21 20 19 19 18 17 16 16 16 16 16 16 15 14 14
11 10 13 14 14 13 12 13 14 13 13 13 12 13 15 17 18 18 18 19 19 19 19 17 18 18 20 22 23 22 20 19 19 18 18 17 17 16 16 16 16 16 15 15
11 11 14 14 14 14 13 13 14 13 12 10 13 14 16 17 17 17 17 17 17 18 18 18 18 19 20 21 21 21 20 19 19 18 18 18 17 17 17 17 16 16 16 15
13 12 14 13 14 13 14 13 12 12 10 12 12 12 15 17 18 17 18 18 17 17 16 17 16 18 19 20 20 20 20 20 19 19 18 18 18 17 17 17 16 16 16 16
13 12 13 13 13 13 12 13 13 13 11 13 13 12 15 17 17 17 16 17 17 17 17 17 16 18 19 20 20 21 20 20 20 19 18 18 18 18 17 17 17 16 16 16
12 11 9 11 13 14 14 13 13 12 11 10 12 14 16 16 17 17 15 16 15 15 15 15 14 17 18 19 20 21 21 20 20 19 19 18 18 18 17 17 17 17 16 16
12 10 5 8 11 13 12 13 14 13 12 12 11 13 16 15 15 16 15 14 14 14 15 15 15 14 16 17 18 20 20 21 20 19 18 18 17 17 17 17 17 16 16 16
14 10 10 11 11 12 11 12 12 12 11 12 12 13 15 15 14 14 13 14 15 16 16 15 15 14 16 17 18 18 19 20 20 19 17 17 16 16 17 17 16 16 16 16
12 8 10 11 11 11 12 12 11 11 12 11 13 13 14 15 13 14 15 15 15 15 14 12 12 13 14 15 15 16 18 19 19 18 17 17 17 16 16 16 16 16 15 15
10 8 9 7 11 11 10 11 10 11 11 10 11 10 13 14 13 13 13 11 9 9 9 9 9 9 9 9 9 9 13 14 16 17 17 17 16 16 15 16 16 16 15 15
10 7 7 4 9 9 6 9 11 12 11 11 11 13 14 11 10 8 6 6 7 7 7 6 6 7 6 6 6 8 6 8 11 12 16 17 17 15 15 15 15 15 15 15
7 7 6 3 4 6 10 11 12 10 12 12 12 11 5 5 6 5 4 3 4 4 4 4 4 4 3 4 4 4 3 4 6 9 11 15 16 15 15 14 13 14 13 13
8 7 6 7 1 5 8 11 12 11 10 4 5 4 3 2 6 4 3 2 2 2 2 2 2 1 1 2 2 1 1 2 3 6 7 9 13 14 14 12 12 12 11 12
8 8 6 -4 0 2 8 11 12 12 8 1 1 0 -0 1 5 5 0 0 1 0 -0 -0 -0 -1 -1 -0 -1 -2 -1 -0 1 2 2 4 7 9 10 10 10 9 8 9
1 -0 4 -4 -2 2 6 6 8 6 7 -1 -2 -2 -2 -2 -1 -1 -2 -1 -2 -3 -3 -3 -3 -3 -3 -3 -3 -3 -2 -2 -2 -1 -1 0 3 6 8 9 9 7 7 8
4 2 -1 -3 -2 3 2 5 9 -0 -3 -3 -4 -4 -5 -4 -4 -4 -4 -4 -4 -4 -5 -5 -5 -5 -4 -5 -4 -4 -4 -4 -3 -3 -2 -1 1 3 6 6 6 6 6 6
5 6 4 5 4 -0 -2 -3 -4 -4 -4 -5 -5 -6 -6 -7 -6 -6 -7 -6 -6 -6 -7 -7 -7 -7 -7 -7 -7 -6 -5 -5 -5 -5 -3 -2 -0 1 3 2 3 3 4 5
6 4 5 5 0 -3 -4 -5 -6 -5 -6 -7 -7 -7 -8 -8 -8 -7 -7 -7 -8 -9 -9 -9 -9 -9 -10 -10 -9 -8 -8 -7 -7 -7 -5 -2 -1 -0 0 1 1 2 3 4
0 1 0 -0 -2 -4 -5 -6 -7 -7 -8 -8 -8 -9 -9 -9 -9 -9 -9 -10 -10 -10 -11 -11 -11 -12 -12 -12 -11 -11 -10 -10 -10 -9 -6 -2 -1 -1 -0 -0 0 1 2 3
-8 -3 2 2 -5 -5 -5 -7 -10 -9 -10 -10 -10 -11 -11 -10 -11 -11 -11 -12 -11 -12 -12 -12 -13 -13 -13 -14 -13 -13 -12 -12 -11 -10 -7 -3 -1 -0 -0 -0 0 0 1 2